Location: La Almunia del Romeral
(42.2070°N, 0.2807°W)
Time: 05:30:55
(UTC+00:00)

Daily predictions for brighter satellites

Satellite Brightness Start Highest point End
(mag) Time Altitude Azimuth Time Altitude Azimuth Time Altitude Azimuth
Cosmos 2297 Rocket 3.5 04:09:44 35° ESE 04:09:44 35° ESE 04:13:15 10° SE
Cosmos 2227 Rocket 3.1 04:20:52 46° ESE 04:20:52 46° ESE 04:25:08 10° SE
Cosmos 2074 Rocket 4.3 04:31:13 29° N 04:34:33 65° E 04:40:42 10° SSE
Cosmos 1656 4.5 04:36:46 42° NNE 04:36:46 42° NNE 04:40:20 10° NNE
Cosmos 2369 4.3 04:39:28 29° S 04:42:11 54° ESE 04:47:47 10° NNE
SL-4 R/B 4.5 04:45:25 14° NE 04:45:25 14° NE 04:46:17 10° ENE
Cosmos 1626 4.4 05:00:08 18° SSE 05:00:08 18° SSE 05:01:09 10° SSE
COSMO-SKYMED 1 3.2 04:54:40 10° SSE 04:58:54 55° ENE 04:59:35 49° NE
Lacrosse 5 rocket 3.7 05:05:38 17° N 05:05:38 17° N 05:07:14 10° NNE
USA 215 3.2 04:58:12 10° SE 05:04:44 85° NE 05:07:03 44° NW
Cosmos 1980 Rocket 3.2 05:02:36 10° S 05:08:00 46° ESE 05:13:24 10° NE
STARLINK-26 4.5 05:08:45 40° ESE 05:08:45 40° ESE 05:11:30 10° ENE
Meteor 1-24 Rocket 4.0 05:11:55 50° SW 05:11:55 50° SW 05:16:48 10° S
ALOS 2.6 05:09:06 10° NNE 05:13:46 66° E 05:18:24 10° S
FENGYUN 3A 4.0 05:09:58 10° NNE 05:15:22 67° ESE 05:20:44 10° S
Cosmos 1697 Rocket 2.5 05:13:30 26° SSW 05:16:47 83° WNW 05:22:26 10° NNE
Cosmos 1953 3.2 05:14:24 10° S 05:18:18 50° E 05:22:14 10° NNE
SKYMED 3 4.4 05:18:20 10° S 05:22:40 81° WSW 05:23:40 53° NNW
CENTAUR R/B 4.2 05:16:54 13° NNW 05:23:32 39° NE 05:31:30 10° ESE
Cosmos 2327 Rocket 4.3 05:17:28 10° N 05:23:45 75° W 05:29:53 10° S
Cosmos 1726 4.1 05:21:26 10° SSE 05:24:38 29° E 05:27:51 10° NNE
Nadezhda 1 Rocket 3.8 05:19:17 10° SSW 05:25:22 73° W 05:31:27 10° N
ATLAS 2AS CENTAUR R/B 4.0 05:21:36 10° S 05:29:02 47° ESE 05:36:37 10° NE
Abrixas rocket 3.9 05:32:51 22° NNE 05:32:51 22° NNE 05:34:46 10° ENE
ADEOS Rocket 4.1 05:27:18 10° SE 05:32:18 37° ENE 05:37:24 10° N
CZ-3 R/B 3.5 05:23:31 18° WSW 05:35:39 37° SSW 05:41:45 10° SE
Cosmos 773 Rocket 3.9 05:30:28 10° SSW 05:35:43 63° WNW 05:40:59 10° NNE
SJ-12 3.8 05:33:23 10° N 05:37:24 60° WNW 05:41:24 10° SSW
Cosmos 2082 3.7 05:35:56 31° NW 05:38:34 58° WSW 05:44:08 10° S
USA 238 DEB 4.0 05:34:15 17° NNW 05:40:03 75° NE 05:47:29 10° SE
USA 238 4.0 05:34:20 17° NNW 05:40:09 75° NE 05:47:35 10° SE
Cosmos 1602 Rocket 3.7 05:39:57 46° WNW 05:40:23 48° W 05:44:31 10° SSW
Cosmos 2228 3.9 05:36:21 10° S 05:40:36 51° E 05:44:53 10° NNE
CZ-4B DEB 4.1 05:35:22 10° NNE 05:40:57 82° WNW 05:46:28 10° SSW
BREEZE-M DEB (TANK) 4.2 05:30:48 14° WSW 05:44:10 65° NNW 05:48:59 10° NE
SKYMED 2 3.9 05:42:48 10° S 05:46:55 43° W 05:48:09 34° WNW
Cosmos 2184 Rocket 4.5 05:44:05 18° NNW 05:48:01 35° W 05:53:34 10° SSW
Meteor 2-17 Rocket 4.3 05:42:44 10° NNW 05:48:49 75° W 05:54:51 10° S
Cosmos 2297 Rocket 3.2 05:51:37 24° WSW 05:51:37 24° WSW 05:55:54 10° SSW
Cosmos 1953 Rocket 4.3 05:47:14 10° N 05:51:37 54° E 05:55:56 10° SSE
Cosmos 2344 3.7 05:46:44 14° WSW 05:53:12 54° NW 06:01:13 10° NNE
Okean O Rocket 1.5 05:50:06 10° NNE 05:54:35 86° WNW 05:59:01 10° SSW
Cosmos 2322 Rocket 4.4 05:50:51 10° SSE 05:55:35 28° ESE 06:00:22 10° NE
NOSS 2-2 (D) 3.4 05:54:41 36° W 05:55:40 46° NW 05:59:32 10° NNE
Cosmos 2154 Rocket 4.1 05:50:01 10° NNW 05:55:56 49° W 06:01:50 10° SSW
STARLINK-67 4.4 05:56:48 19° SSW 05:56:48 19° SSW 05:58:16 10° S
Cosmos 1758 Rocket 3.4 05:52:39 10° NNW 05:57:01 76° W 06:01:24 10° S
SJ-7 4.5 05:52:59 10° NNE 05:57:08 83° ESE 06:01:18 10° S
NOSS 2 (A) 4.5 05:58:10 41° N 05:58:42 55° NE 06:01:00 10° SE
Cosmos 2360 4.2 05:53:49 10° SW 05:59:27 57° WNW 06:05:07 10° NNE
Cosmos 2227 Rocket 3.3 06:02:45 21° W 06:03:13 21° W 06:07:21 10° SSW
USA 32 4.0 05:58:06 10° N 06:03:23 87° W 06:08:38 10° S
Helios 1A Rocket 2.9 05:59:25 10° NNE 06:03:33 88° W 06:07:41 10° SSW
STARLINK-34 4.0 05:59:36 10° SW 06:03:34 62° SE 06:07:33 10° ENE
FALCON 9 DEB 3.7 06:03:00 20° S 06:03:41 26° SE 06:05:17 10° ENE
Cosmos 1328 4.5 06:00:05 10° N 06:04:02 56° E 06:07:55 10° SSE
STARLINK-24 3.9 06:01:52 10° SW 06:05:50 65° SE 06:09:49 10° ENE
STARLINK-81 4.0 06:02:44 10° SW 06:06:41 60° SE 06:10:40 10° ENE
Cosmos 1538 Rocket 4.3 06:02:20 10° SW 06:07:28 46° WNW 06:12:36 10° N
STARLINK-54 3.8 06:04:30 10° SW 06:08:28 68° SE 06:12:29 10° ENE
Cosmos 44 Rocket 3.4 06:05:35 20° NW 06:08:35 51° WSW 06:13:11 10° SSE
USA 116 4.4 06:03:51 10° S 06:08:39 47° W 06:13:00 10° NNW
STARLINK-77 3.9 06:06:00 10° SW 06:09:59 64° SE 06:13:58 10° ENE
STARLINK-25 3.9 06:07:40 10° SW 06:11:39 67° SE 06:15:39 10° ENE
Cosmos 2263 Rocket 2.9 06:06:26 10° NNW 06:11:59 56° ENE 06:17:32 10° SE
STARLINK-71 3.7 06:09:29 10° SW 06:13:29 76° SE 06:17:30 10° NE
SMAP 3.6 06:10:03 10° NNE 06:14:41 63° ESE 06:19:17 10° S
STARLINK-48 4.3 06:13:02 22° WNW 06:14:46 33° NNW 06:18:20 10° NE
STARLINK-79 3.8 06:10:56 10° SW 06:14:55 71° SE 06:18:57 10° ENE
STARLINK-78 3.7 06:12:36 10° SW 06:16:36 74° SE 06:20:38 10° NE
Cosmos 2058 Rocket 3.3 06:12:43 10° S 06:17:07 74° E 06:21:31 10° NNE
STARLINK-57 3.6 06:14:21 10° SW 06:18:21 80° SE 06:22:24 10° NE
Cosmos 2278 4.2 06:13:15 10° SW 06:18:31 37° WNW 06:23:49 10° N
STARLINK-46 2.3 06:18:53 35° W 06:19:23 44° SW 06:21:22 10° SE
STARLINK-49 3.6 06:15:52 10° SW 06:19:53 79° SE 06:23:55 10° NE
STARLINK-27 3.6 06:17:31 10° SW 06:21:32 81° SE 06:25:34 10° NE
COSMOS 2455 2.9 06:16:55 10° SW 06:22:49 58° NW 06:28:46 10° NNE
STARLINK-74 3.6 06:19:10 10° SW 06:23:11 83° SE 06:27:13 10° NE
Cosmos 1825 Rocket 3.9 06:19:24 10° NNW 06:23:30 43° W 06:27:36 10° SSW
SL-4 R/B 1.8 06:21:02 17° NW 06:23:39 63° NNE 06:27:02 10° ESE
STARLINK-39 3.5 06:20:49 10° SW 06:24:50 86° SSE 06:28:53 10° NE
STARLINK 3.5 06:22:28 10° SW 06:26:29 89° SE 06:30:32 10° NE
Cosmos 2366 rocket 4.0 06:20:29 10° N 06:26:51 86° W 06:33:13 10° S
STARLINK-69 3.5 06:24:19 10° SW 06:28:21 83° NW 06:32:24 10° NE
STARLINK-21 3.5 06:25:49 10° SW 06:29:50 86° NW 06:33:53 10° NE
STARLINK-45 3.5 06:27:42 10° WSW 06:31:44 76° NW 06:35:46 10° NE
NOSS 3-2 (C) 4.1 06:24:45 10° NW 06:32:25 87° WSW 06:40:57 10° SSE
SL-16 R/B 2.6 06:26:53 10° SSW 06:32:30 68° ESE 06:38:08 10° NNE
NOSS 7 (D) 4.2 06:29:56 13° NW 06:32:37 68° WSW 06:36:06 10° SSE
NOAA 6 4.5 06:28:14 10° N 06:33:02 39° WNW 06:37:49 10° SW
STARLINK-70 3.5 06:29:15 10° WSW 06:33:17 77° NW 06:37:19 10° NE
STARLINK-76 3.5 06:30:48 10° WSW 06:34:48 79° NW 06:38:51 10° NE
COSMO-SKYMED 1 4.3 06:33:13 10° WSW 06:35:23 13° W 06:36:48 12° WNW
STARLINK 3.5 06:32:28 10° WSW 06:36:29 76° NW 06:40:31 10° NE
STARLINK-32 3.5 06:34:05 10° WSW 06:38:06 74° NW 06:42:08 10° NE
YAOGAN 6 3.8 06:34:58 10° NNE 06:38:26 46° E 06:41:49 10° S
H-2A R/B 2.8 06:34:42 10° N 06:38:33 56° WNW 06:42:21 10° SSW
STARLINK-40 3.5 06:35:46 10° WSW 06:39:46 72° NW 06:43:49 10° NE
Cosmos 1606 Rocket 4.3 06:36:49 10° SW 06:40:48 31° WNW 06:44:46 10° NNW
CZ-4 R/B 3.7 06:37:30 10° NE 06:41:15 30° E 06:44:58 10° SSE
STARLINK-44 3.5 06:37:23 10° WSW 06:41:24 70° NW 06:45:26 10° NE
Cosmos 1680 Rocket 3.5 06:36:23 10° SSW 06:41:40 69° WNW 06:47:00 10° NNE
Envisat 3.4 06:36:50 10° NNE 06:41:56 69° ESE 06:46:58 10° S
CZ-4B R/B 3.7 06:37:06 10° N 06:42:13 38° WNW 06:47:14 10° SW
STARLINK-37 3.5 06:39:12 10° WSW 06:43:12 65° NW 06:47:13 10° NE
Cosmos 1726 Rocket 4.1 06:39:34 10° SW 06:43:41 36° WNW 06:47:48 10° N
Feng Yun 1-1 Rocket 4.5 06:37:46 10° NNE 06:43:45 90° WNW 06:49:36 10° SSW
STARLINK-42 3.4 06:40:15 10° WSW 06:44:01 61° NW 06:47:50 10° NE
STARLINK-33 3.4 06:40:47 10° WSW 06:44:23 57° NNW 06:48:00 10° NE
Lacrosse 5 rocket 3.7 06:42:34 10° NNW 06:44:25 12° N 06:46:15 10° NNE
NOSS 3-4 (A) 3.4 06:38:44 10° SW 06:44:42 82° NW 06:51:02 10° NE
STARLINK-64 3.4 06:40:54 10° WSW 06:44:42 62° NW 06:48:31 10° NE
STARLINK-36 3.5 06:40:46 10° WSW 06:44:45 66° NW 06:48:46 10° NE
NOSS 3-4 (C) 3.4 06:38:51 10° SW 06:44:48 82° NW 06:51:08 10° NE
STARLINK-26 4.2 06:42:21 10° W 06:45:28 29° NNW 06:48:37 10° NE
Cosmos 2360 Rocket 4.0 06:40:36 10° S 06:45:44 37° ESE 06:50:54 10° NE
Meteor 1-11 4.2 06:40:59 10° NNW 06:46:34 73° W 06:52:10 10° S
STARLINK-68 3.6 06:42:38 10° WSW 06:46:36 59° NNW 06:50:36 10° NE
Cosmos 1371 Rocket 4.3 06:41:28 10° NNW 06:46:46 74° ENE 06:52:05 10° SSE
EXPRESS MD2 4.1 06:45:22 10° WNW 06:47:19 16° NNW 06:48:55 10° NNE
STARLINK-63 3.6 06:44:12 10° WSW 06:48:10 60° NNW 06:52:10 10° NE
USA 215 4.4 06:42:54 10° S 06:48:12 26° SW 06:53:32 10° WNW
ATLAS 3B R/B 3.0 06:41:33 10° NNW 06:48:16 68° NE 06:55:10 10° SE
STARLINK-66 3.5 06:45:40 10° WSW 06:49:13 51° NNW 06:52:48 10° NE
STARLINK-35 3.6 06:45:45 10° WSW 06:49:44 61° NNW 06:53:44 10° NE
Cosmos 1908 3.7 06:46:47 10° SSW 06:50:28 40° WNW 06:54:12 10° N
ALOS 3.9 06:48:10 10° NNW 06:50:38 14° WNW 06:53:05 10° W
STARLINK-51 3.6 06:47:24 10° WSW 06:51:22 59° NNW 06:55:21 10° NE
Cosmos 2181 Rocket 4.4 06:45:44 10° SW 06:51:30 41° WNW 06:57:24 10° N
Cosmos 1980 Rocket 3.0 06:47:19 10° WSW 06:52:11 28° NW 06:57:03 10° N
AQUARIUS 4.3 06:48:37 10° N 06:53:02 56° WNW 06:57:24 10° SSW
STARLINK-30 3.6 06:49:05 10° WSW 06:53:02 57° NNW 06:57:01 10° NE
Cosmos 1300 3.3 06:49:19 10° S 06:53:04 63° E 06:56:52 10° NNE
STARLINK-55 3.6 06:51:09 10° WSW 06:54:39 46° NNW 06:58:11 10° NE
Cosmos 1703 3.9 06:51:03 10° NNW 06:54:40 34° W 06:58:15 10° SSW
STARLINK-72 3.7 06:50:44 10° WSW 06:54:41 55° NNW 06:58:40 10° NE
Cosmos 1953 4.1 06:53:14 10° W 06:55:01 13° WNW 06:56:50 10° NW
NOSS 3-2 (A) 4.5 06:48:23 10° NW 06:55:43 47° WSW 07:03:43 10° S
Cosmos 2112 Rocket 4.1 06:52:19 10° SSW 06:57:35 58° WNW 07:02:53 10° NNE
